[TLELIST] Archives

 

Current TLEs

March 25th 2008 PST

HST 1 20580U 90037B 08082.66905242 .00000361 00000-0 15094-4 0 989 2 20580 028.4677 167.5086 0003975 187.0143 173.0390 15.00352605781974 ISS (ZARYA) 1 25544U 98067A 08084.37273694 .00010082 00000-0 66410-4 0 1748 2 25544 051.6375 093.6150 0001253 297.7308 201.7059 15.76382746535141 CXO 1 25867U 99040B 08082.91666667 .00000224 00000-0 10000-3 0 1786 2 25867 063.3460 082.6709 6680476 279.9647 353.1178 00.37806218 3304 ____________________________________________________________________ These 2-Line ...Continue Reading

Current TLEs

March 24th 2008 PST

HST 1 20580U 90037B 08082.66905242 .00000361 00000-0 15094-4 0 989 2 20580 028.4677 167.5086 0003975 187.0143 173.0390 15.00352605781974 ISS (ZARYA) 1 25544U 98067A 08083.48805414 .00005757 00000-0 39716-4 0 1708 2 25544 051.6392 098.1780 0001101 299.5053 216.0028 15.76354713535001 CXO 1 25867U 99040B 08082.91666667 .00000224 00000-0 10000-3 0 1786 2 25867 063.3460 082.6709 6680476 279.9647 353.1178 00.37806218 3304 ____________________________________________________________________ These 2-Line ...Continue Reading

Current TLEs

March 23rd 2008 PST

HST 1 20580U 90037B 08081.53821026 .00000365 00000-0 15388-4 0 970 2 20580 028.4676 174.8826 0003971 175.6379 184.4248 15.00352180781804 ISS (ZARYA) 1 25544U 98067A 08082.53064509 .00039741 00000-0 24919-3 0 1635 2 25544 051.6408 103.1144 0001538 291.4178 187.2716 15.76367205534858 CXO 1 25867U 99040B 08082.91666667 .00000224 00000-0 10000-3 0 1786 2 25867 063.3460 082.6709 6680476 279.9647 353.1178 00.37806218 3304 ____________________________________________________________________ These 2-Line ...Continue Reading

Current TLEs

March 22nd 2008 PST

HST 1 20580U 90037B 08079.67564565 .00000396 00000-0 17827-4 0 967 2 20580 028.4678 187.0286 0003952 156.7919 203.2848 15.00351632781527 ISS (ZARYA) 1 25544U 98067A 08081.52285654 .00009475 00000-0 62924-4 0 1561 2 25544 051.6387 108.3029 0001092 309.6336 206.2218 15.76284468534696 CXO 1 25867U 99040B 08072.33333333 .00000224 00000-0 10000-3 0 1771 2 25867 063.3008 082.9471 6662777 280.1753 352.0919 00.37803691 3265 ____________________________________________________________________ These 2-Line ...Continue Reading

Current TLEs

March 21st 2008 PST

HST 1 20580U 90037B 08079.67564565 .00000396 00000-0 17827-4 0 967 2 20580 028.4678 187.0286 0003952 156.7919 203.2848 15.00351632781527 ISS (ZARYA) 1 25544U 98067A 08080.50692138 -.00128966 00000-0 -81262-3 0 1493 2 25544 051.6373 113.5392 0001558 314.3046 192.6308 15.76220567534531 CXO 1 25867U 99040B 08072.33333333 .00000224 00000-0 10000-3 0 1771 2 25867 063.3008 082.9471 6662777 280.1753 352.0919 00.37803691 3265 ____________________________________________________________________ These 2-Line ...Continue Reading

Current TLEs

March 20th 2008 PST

HST 1 20580U 90037B 08077.61351940 +.00000424 +00000-0 +20048-4 0 01041 2 20580 028.4678 200.4761 0003911 135.2954 224.7951 15.00350856781217 ISS (ZARYA) 1 25544U 98067A 08079.49260323 .00007433 00000-0 50111-4 0 1422 2 25544 051.6395 118.7670 0000825 288.2892 218.7332 15.76346105534371 CXO 1 25867U 99040B 08072.33333333 .00000224 00000-0 10000-3 0 1771 2 25867 063.3008 082.9471 6662777 280.1753 352.0919 00.37803691 3265 ____________________________________________________________________ These 2-Line ...Continue Reading

Current TLEs

March 19th 2008 PST

HST 1 20580U 90037B 08076.61571588 .00000420 00000-0 19736-4 0 948 2 20580 028.4677 206.9820 0003919 124.5240 235.5722 15.00350303781066 ISS (ZARYA) 1 25544U 98067A 08078.53111569 .00002767 00000-0 21227-4 0 1367 2 25544 051.6391 123.7202 0001138 267.1200 179.9473 15.76316268534226 CXO 1 25867U 99040B 08072.33333333 .00000224 00000-0 10000-3 0 1771 2 25867 063.3008 082.9471 6662777 280.1753 352.0919 00.37803691 3265 ____________________________________________________________________ These 2-Line ...Continue Reading

Current TLEs

March 18th 2008 PST

HST 1 20580U 90037B 08076.61571588 .00000420 00000-0 19736-4 0 948 2 20580 028.4677 206.9820 0003919 124.5240 235.5722 15.00350303781066 ISS (ZARYA) 1 25544U 98067A 08077.52717446 -.00000506 00000-0 90048-6 0 1292 2 25544 051.6394 128.8961 0000658 290.9053 215.2106 15.76303035534060 CXO 1 25867U 99040B 08072.33333333 .00000224 00000-0 10000-3 0 1771 2 25867 063.3008 082.9471 6662777 280.1753 352.0919 00.37803691 3265 ____________________________________________________________________ These 2-Line ...Continue Reading

Current TLEs

March 17th 2008 PST

HST 1 20580U 90037B 08074.75314873 +.00000401 +00000-0 +18248-4 0 01030 2 20580 028.4680 219.1344 0003865 103.6025 256.4993 15.00349304780785 ISS (ZARYA) 1 25544U 98067A 08076.51194446 .00018887 00000-0 12024-3 0 1238 2 25544 051.6378 134.1254 0001149 260.1337 240.5524 15.76479734533904 CXO 1 25867U 99040B 08072.33333333 .00000224 00000-0 10000-3 0 1771 2 25867 063.3008 082.9471 6662777 280.1753 352.0919 00.37803691 3265 ____________________________________________________________________ These 2-Line ...Continue Reading

Current TLEs

March 16th 2008 PST

HST 1 20580U 90037B 08073.75534345 .00000418 00000-0 19564-4 0 924 2 20580 028.4679 225.6413 0003876 092.4138 267.6893 15.00348907780639 ISS (ZARYA) 1 25544U 98067A 08075.50902778 .00014972 00000-0 96375-4 0 1177 2 25544 051.6376 139.2941 0001173 244.2999 320.7279 15.76436500533749 CXO 1 25867U 99040B 08072.33333333 .00000224 00000-0 10000-3 0 1771 2 25867 063.3008 082.9471 6662777 280.1753 352.0919 00.37803691 3265 ____________________________________________________________________ These 2-Line ...Continue Reading
  • This mailing list is a public mailing list - anyone may join or leave, at any time.
  • This mailing list is announce-only.

International Space Station (ISS) / Hubble Space Telescope (HST) / Chandra X-Ray Observatory Orbital Data via EMAIL

Privacy Policy:

Private list